Time,TemperatureF,DewpointF,PressureIn,WindDirection,WindDirectionDegrees,WindSpeedMPH,WindSpeedGustMPH,Humidity,HourlyPrecipIn,Conditions,Clouds,dailyrainin,SolarRadiationWatts/m^2,SoftwareType,DateUTC
2013-08-17 00:01:00,67.0,35.0,-100.00,East,94,0.0,4.0,31,0.00,,,0.00,0.000000,,2013-08-17 06:01:00,
2013-08-17 00:12:00,67.0,35.0,-100.00,East,94,0.0,4.0,31,0.00,,,0.00,0.000000,,2013-08-17 06:12:00,
2013-08-17 00:21:00,67.0,35.0,-100.00,East,94,0.0,4.0,31,0.00,,,0.00,0.000000,,2013-08-17 06:21:00,
2013-08-17 00:52:00,64.0,35.0,-100.00,SE,127,0.0,4.0,34,0.00,,,0.00,0.000000,,2013-08-17 06:52:00,
2013-08-17 01:01:00,64.0,35.0,-100.00,SE,127,0.0,4.0,34,0.00,,,0.00,0.000000,,2013-08-17 07:01:00,
2013-08-17 01:11:00,64.0,35.0,-100.00,SE,127,0.0,4.0,34,0.00,,,0.00,0.000000,,2013-08-17 07:11:00,
2013-08-17 01:21:00,64.0,35.0,-100.00,SE,127,0.0,4.0,34,0.00,,,0.00,0.000000,,2013-08-17 07:21:00,
2013-08-17 01:52:00,61.0,35.0,-100.00,NNE,13,0.0,5.0,38,0.00,,,0.00,0.000000,,2013-08-17 07:52:00,
2013-08-17 02:01:00,61.0,35.0,-100.00,NNE,13,0.0,5.0,38,0.00,,,0.00,0.000000,,2013-08-17 08:01:00,
2013-08-17 02:11:00,61.0,35.0,-100.00,NNE,13,0.0,5.0,38,0.00,,,0.00,0.000000,,2013-08-17 08:11:00,
2013-08-17 02:21:00,61.0,35.0,-100.00,NNE,13,0.0,5.0,38,0.00,,,0.00,0.000000,,2013-08-17 08:21:00,
2013-08-17 02:52:00,58.0,37.0,-100.00,East,82,0.0,3.0,45,0.00,,,0.00,0.000000,,2013-08-17 08:52:00,
2013-08-17 03:01:00,58.0,37.0,-100.00,East,82,0.0,3.0,45,0.00,,,0.00,0.000000,,2013-08-17 09:01:00,
2013-08-17 03:11:00,58.0,37.0,-100.00,East,82,0.0,3.0,45,0.00,,,0.00,0.000000,,2013-08-17 09:11:00,
2013-08-17 03:21:00,58.0,37.0,-100.00,East,82,0.0,3.0,45,0.00,,,0.00,0.000000,,2013-08-17 09:21:00,
2013-08-17 03:53:00,54.0,36.0,-100.00,ESE,112,1.0,3.0,51,0.00,,,0.00,0.000000,,2013-08-17 09:53:00,
2013-08-17 04:03:00,54.0,36.0,-100.00,ESE,112,1.0,3.0,51,0.00,,,0.00,0.000000,,2013-08-17 10:03:00,
2013-08-17 04:12:00,54.0,36.0,-100.00,ESE,112,1.0,3.0,51,0.00,,,0.00,0.000000,,2013-08-17 10:12:00,
2013-08-17 04:23:00,54.0,36.0,-100.00,ESE,112,1.0,3.0,51,0.00,,,0.00,0.000000,,2013-08-17 10:23:00,
2013-08-17 04:52:00,53.0,37.0,-100.00,East,95,0.0,4.0,55,0.00,,,0.00,0.000000,,2013-08-17 10:52:00,
2013-08-17 05:02:00,53.0,37.0,-100.00,East,95,0.0,4.0,55,0.00,,,0.00,0.000000,,2013-08-17 11:02:00,
2013-08-17 05:11:00,53.0,37.0,-100.00,East,95,0.0,4.0,55,0.00,,,0.00,0.000000,,2013-08-17 11:11:00,
2013-08-17 05:21:00,53.0,37.0,-100.00,East,95,0.0,4.0,55,0.00,,,0.00,0.000000,,2013-08-17 11:21:00,
2013-08-17 05:52:00,53.0,39.0,-100.00,SE,138,0.0,4.0,58,0.00,,,-99.99,0.000000,,2013-08-17 11:52:00,
2013-08-17 06:01:00,53.0,39.0,-100.00,SE,138,0.0,4.0,58,0.00,,,-99.99,0.000000,,2013-08-17 12:01:00,
2013-08-17 06:11:00,53.0,39.0,-100.00,SE,138,0.0,4.0,58,0.00,,,-99.99,0.000000,,2013-08-17 12:11:00,
2013-08-17 06:21:00,53.0,39.0,-100.00,SE,138,0.0,4.0,58,0.00,,,-99.99,0.000000,,2013-08-17 12:21:00,
2013-08-17 06:52:00,49.0,37.0,-100.00,North,1,0.0,4.0,64,0.00,,,0.00,0.000000,,2013-08-17 12:52:00,
2013-08-17 07:01:00,49.0,37.0,-100.00,North,1,0.0,4.0,64,0.00,,,0.00,0.000000,,2013-08-17 13:01:00,
2013-08-17 07:11:00,49.0,37.0,-100.00,North,1,0.0,4.0,64,0.00,,,0.00,0.000000,,2013-08-17 13:11:00,
2013-08-17 07:21:00,49.0,37.0,-100.00,North,1,0.0,4.0,64,0.00,,,0.00,0.000000,,2013-08-17 13:21:00,
2013-08-17 07:52:00,48.0,39.0,-100.00,East,92,0.0,0.0,70,0.00,,,0.00,2.000000,,2013-08-17 13:52:00,
2013-08-17 08:01:00,48.0,39.0,-100.00,East,92,0.0,0.0,70,0.00,,,0.00,2.000000,,2013-08-17 14:01:00,
2013-08-17 08:11:00,48.0,39.0,-100.00,East,92,0.0,0.0,70,0.00,,,0.00,2.000000,,2013-08-17 14:11:00,
2013-08-17 08:21:00,48.0,39.0,-100.00,East,92,0.0,0.0,70,0.00,,,0.00,2.000000,,2013-08-17 14:21:00,
2013-08-17 08:52:00,49.0,39.0,-100.00,ESE,118,0.0,3.0,67,0.00,,,-99.99,25.000000,,2013-08-17 14:52:00,
2013-08-17 09:01:00,49.0,39.0,-100.00,ESE,118,0.0,3.0,67,0.00,,,-99.99,25.000000,,2013-08-17 15:01:00,
2013-08-17 09:11:00,49.0,39.0,-100.00,ESE,118,0.0,3.0,67,0.00,,,-99.99,25.000000,,2013-08-17 15:11:00,
2013-08-17 09:22:00,49.0,39.0,-100.00,ESE,118,0.0,3.0,67,0.00,,,-99.99,25.000000,,2013-08-17 15:22:00,
2013-08-17 09:53:00,59.0,41.0,-100.00,NW,326,0.0,2.0,51,0.00,,,0.00,192.000000,,2013-08-17 15:53:00,
2013-08-17 10:03:00,59.0,41.0,-100.00,NW,326,0.0,2.0,51,0.00,,,0.00,192.000000,,2013-08-17 16:03:00,
2013-08-17 10:12:00,59.0,41.0,-100.00,NW,326,0.0,2.0,51,0.00,,,0.00,192.000000,,2013-08-17 16:12:00,
2013-08-17 10:23:00,59.0,41.0,-100.00,NW,326,0.0,2.0,51,0.00,,,0.00,192.000000,,2013-08-17 16:23:00,
2013-08-17 10:53:00,65.0,43.0,-100.00,NW,304,2.0,5.0,44,0.00,,,0.00,433.000000,,2013-08-17 16:53:00,
2013-08-17 11:02:00,65.0,43.0,-100.00,NW,304,2.0,5.0,44,0.00,,,0.00,433.000000,,2013-08-17 17:02:00,
2013-08-17 11:12:00,65.0,43.0,-100.00,NW,304,2.0,5.0,44,0.00,,,0.00,433.000000,,2013-08-17 17:12:00,
2013-08-17 11:23:00,65.0,43.0,-100.00,NW,304,2.0,5.0,44,0.00,,,0.00,433.000000,,2013-08-17 17:23:00,
2013-08-17 11:52:00,74.0,44.0,-100.00,WNW,295,1.0,5.0,34,0.00,,,0.00,579.000000,,2013-08-17 17:52:00,
2013-08-17 12:02:00,74.0,44.0,-100.00,WNW,295,1.0,5.0,34,0.00,,,0.00,579.000000,,2013-08-17 18:02:00,
2013-08-17 12:11:00,74.0,44.0,-100.00,WNW,295,1.0,5.0,34,0.00,,,0.00,579.000000,,2013-08-17 18:11:00,
2013-08-17 12:21:00,74.0,44.0,-100.00,WNW,295,1.0,5.0,34,0.00,,,0.00,579.000000,,2013-08-17 18:21:00,
2013-08-17 12:52:00,78.0,43.0,-100.00,WNW,295,4.0,6.0,29,0.00,,,0.00,685.000000,,2013-08-17 18:52:00,
2013-08-17 13:01:00,78.0,43.0,-100.00,WNW,295,4.0,6.0,29,0.00,,,0.00,685.000000,,2013-08-17 19:01:00,
2013-08-17 13:11:00,78.0,43.0,-100.00,WNW,295,4.0,6.0,29,0.00,,,0.00,685.000000,,2013-08-17 19:11:00,
2013-08-17 13:21:00,78.0,43.0,-100.00,WNW,295,4.0,6.0,29,0.00,,,0.00,685.000000,,2013-08-17 19:21:00,
2013-08-17 13:52:00,84.0,43.0,-100.00,West,276,4.0,9.0,24,0.00,,,0.00,800.000000,,2013-08-17 19:52:00,
2013-08-17 14:02:00,84.0,43.0,-100.00,West,276,4.0,9.0,24,0.00,,,0.00,800.000000,,2013-08-17 20:02:00,
2013-08-17 14:11:00,84.0,43.0,-100.00,West,276,4.0,9.0,24,0.00,,,0.00,800.000000,,2013-08-17 20:11:00,
2013-08-17 14:21:00,84.0,43.0,-100.00,West,276,4.0,9.0,24,0.00,,,0.00,800.000000,,2013-08-17 20:21:00,
2013-08-17 14:52:00,86.0,39.0,-100.00,WNW,283,3.0,12.0,19,0.00,,,0.00,475.000000,,2013-08-17 20:52:00,
2013-08-17 15:01:00,86.0,39.0,-100.00,WNW,283,3.0,12.0,19,0.00,,,0.00,475.000000,,2013-08-17 21:01:00,
2013-08-17 15:11:00,86.0,39.0,-100.00,WNW,283,3.0,12.0,19,0.00,,,0.00,475.000000,,2013-08-17 21:11:00,
2013-08-17 15:21:00,86.0,39.0,-100.00,WNW,283,3.0,12.0,19,0.00,,,0.00,475.000000,,2013-08-17 21:21:00,
2013-08-17 15:53:00,86.0,35.0,-100.00,WSW,257,4.0,9.0,16,0.00,,,0.00,692.000000,,2013-08-17 21:53:00,
2013-08-17 16:03:00,86.0,35.0,-100.00,WSW,257,4.0,9.0,16,0.00,,,0.00,692.000000,,2013-08-17 22:03:00,
2013-08-17 16:12:00,86.0,35.0,-100.00,WSW,257,4.0,9.0,16,0.00,,,0.00,692.000000,,2013-08-17 22:12:00,
2013-08-17 16:22:00,86.0,35.0,-100.00,WSW,257,4.0,9.0,16,0.00,,,0.00,692.000000,,2013-08-17 22:22:00,
2013-08-17 16:52:00,86.0,35.0,-100.00,WNW,290,4.0,15.0,16,0.00,,,0.00,522.000000,,2013-08-17 22:52:00,
2013-08-17 17:02:00,86.0,35.0,-100.00,WNW,290,4.0,15.0,16,0.00,,,0.00,522.000000,,2013-08-17 23:02:00,
2013-08-17 17:11:00,86.0,35.0,-100.00,WNW,290,4.0,15.0,16,0.00,,,0.00,522.000000,,2013-08-17 23:11:00,
2013-08-17 17:22:00,86.0,35.0,-100.00,WNW,290,4.0,15.0,16,0.00,,,0.00,522.000000,,2013-08-17 23:22:00,
2013-08-17 17:52:00,87.0,37.0,-100.00,WNW,287,5.0,15.0,17,0.00,,,0.00,259.000000,,2013-08-17 23:52:00,
2013-08-17 18:01:00,87.0,37.0,-100.00,WNW,287,5.0,15.0,17,0.00,,,0.00,259.000000,,2013-08-18 00:01:00,
2013-08-17 18:11:00,87.0,37.0,-100.00,WNW,287,5.0,15.0,17,0.00,,,0.00,259.000000,,2013-08-18 00:11:00,
2013-08-17 18:21:00,87.0,37.0,-100.00,WNW,287,5.0,15.0,17,0.00,,,0.00,259.000000,,2013-08-18 00:21:00,
2013-08-17 18:52:00,85.0,41.0,-100.00,SE,132,5.0,10.0,21,0.00,,,0.00,327.000000,,2013-08-18 00:52:00,
2013-08-17 19:01:00,85.0,41.0,-100.00,SE,132,5.0,10.0,21,0.00,,,0.00,327.000000,,2013-08-18 01:01:00,
2013-08-17 19:11:00,85.0,41.0,-100.00,SE,132,5.0,10.0,21,0.00,,,0.00,327.000000,,2013-08-18 01:11:00,
2013-08-17 19:21:00,85.0,41.0,-100.00,SE,132,5.0,10.0,21,0.00,,,0.00,327.000000,,2013-08-18 01:21:00,
2013-08-17 19:52:00,85.0,43.0,-100.00,WNW,296,3.0,16.0,23,0.00,,,0.00,205.000000,,2013-08-18 01:52:00,
2013-08-17 20:02:00,85.0,43.0,-100.00,WNW,296,3.0,16.0,23,0.00,,,0.00,205.000000,,2013-08-18 02:02:00,
2013-08-17 20:11:00,85.0,43.0,-100.00,WNW,296,3.0,16.0,23,0.00,,,0.00,205.000000,,2013-08-18 02:11:00,
2013-08-17 20:21:00,85.0,43.0,-100.00,WNW,296,3.0,16.0,23,0.00,,,0.00,205.000000,,2013-08-18 02:21:00,
2013-08-17 20:52:00,80.0,42.0,-100.00,NE,39,0.0,10.0,26,0.00,,,0.00,108.000000,,2013-08-18 02:52:00,
2013-08-17 21:02:00,80.0,42.0,-100.00,NE,39,0.0,10.0,26,0.00,,,0.00,108.000000,,2013-08-18 03:02:00,
2013-08-17 21:11:00,80.0,42.0,-100.00,NE,39,0.0,10.0,26,0.00,,,0.00,108.000000,,2013-08-18 03:11:00,
2013-08-17 21:21:00,80.0,42.0,-100.00,NE,39,0.0,10.0,26,0.00,,,0.00,108.000000,,2013-08-18 03:21:00,
2013-08-17 21:53:00,73.0,41.0,-100.00,SE,132,0.0,7.0,31,0.00,,,0.00,9.000000,,2013-08-18 03:53:00,
2013-08-17 22:02:00,-999.0,-99.9,-100.00,SE,132,0.0,7.0,-999,0.00,,,0.00,9.000000,,2013-08-18 04:02:00,
2013-08-17 22:12:00,73.0,41.0,-100.00,SE,132,0.0,7.0,31,0.00,,,0.00,9.000000,,2013-08-18 04:12:00,
2013-08-17 22:23:00,73.0,41.0,-100.00,SE,132,0.0,7.0,31,0.00,,,0.00,9.000000,,2013-08-18 04:23:00,
2013-08-17 22:53:00,69.0,41.0,-100.00,WNW,294,0.0,3.0,36,0.00,,,0.00,0.000000,,2013-08-18 04:53:00,
2013-08-17 23:02:00,69.0,41.0,-100.00,WNW,294,0.0,3.0,36,0.00,,,0.00,0.000000,,2013-08-18 05:02:00,
2013-08-17 23:12:00,69.0,41.0,-100.00,WNW,294,0.0,3.0,36,0.00,,,0.00,0.000000,,2013-08-18 05:12:00,
2013-08-17 23:22:00,69.0,41.0,-100.00,WNW,294,0.0,3.0,36,0.00,,,0.00,0.000000,,2013-08-18 05:22:00,
2013-08-17 23:52:00,66.0,43.0,-100.00,SSE,148,0.0,7.0,43,0.00,,,0.00,0.000000,,2013-08-18 05:52:00,